Weather in Malobragino

Russia / Tomsk District     56°51′08″N   84°23′01″E
temp.,
°C
wind,
m/s
gust,
m/s
humid.,
%
clouds,
%
prec.,
mm/h
press.,
hPa
HPBL,
m
13 may, thu
thu1301:00+10n11575 0.0 101310
04:00+9w11625 0.0 101310
07:00+10w12570 0.0 101372
10:00+16nw343852 0.0 1013628
13:00+18w2333100 0.0 10131783
16:00+18wnw654297 0.0 10121524
19:00+15nw5660100 0.1 10131006
22:00+9nw228233 0.0 101550
14 may, fri
fri1401:00+9wnw268383 0.0 1015175
04:00+6nw311794 0.0 1016389
07:00+8nnw4974100 0.0 10171142
10:00+9nnw58455 0.0 10191205
13:00+12nnw582935 0.0 10201606
16:00+13nw5825100 0.0 10201776
19:00+13nw473074 0.0 10201697
22:00+9nw3758100 0.1 1022763
15 may, sat
sat1501:00+9sw41053100 0.1 1019504
04:00+10sw51559100 0.2 1017622
07:00+11sw513665 0.5 1016550
10:00+17w47545 0.2 1016832
13:00+22wsw5848100 0.2 10141257
16:00+25wsw6113997 0.0 10122695
19:00+13ene488898 1.2 1012262
22:00+14nnw2595100 5.9 1013143
16 may, sun
sun1601:00+13ssw3797100 9.4 1012168
04:00+12sw2596100 0.0 1011102
07:00+13n2794100 0.0 1012255
10:00+16n238283 0.0 1013653
13:00+11nne4794100 4.4 1014370
16:00+13n3579100 0.1 1016739
19:00+13n257948 0.1 1016689
22:00+12nw237471 0.0 101873
17 may, mon
mon1701:00+9sw11848 0.0 101810
04:00+8ssw228964 0.0 101817
07:00+9ssw2784100 0.0 1017205
10:00+12s3108077 0.0 1015412
13:00+22sw6105049 0.0 10111308
16:00+28w612375 0.0 10082999
19:00+27w4103760 0.0 1006806
22:00+20sw5154936 0.0 1005387